Regional Weather Roundup
Issued by NWS Sterling, VA

Home | Current Version | Previous Version | Graphics & Text | Print | Product List | Glossary On
Versions: 1 2 3 4 5 6 7 8 9 10 11 12 13 14 15 16 17 18 19 20 21 22 23 24 25 26 27 28 29 30 31 32 33 34 35 36 37 38 39 40 41 42 43 44 45 46 47 48 49 50
392
ASUS41 KLWX 210911
RWRLWX

REGIONAL WEATHER ROUNDUP
NATIONAL WEATHER SERVICE BALTIMORE MD/WASHINGTON DC
500 AM EDT MON MAY 21 2018

Note: "FAIR" indicates few or no clouds below 12,000 feet
with no significant weather and/or obstructions to visibility.
 TC=TEMPERATURE CELSIUS

 * =Non NWS site. Station does not report precipitation (e.g. rain,
    snow, etc.), thunder, or fog.

DCZ001-MDZ009-015-VAZ040>042-051-053>054-211000-
WASHINGTON METRO

CITY           SKY/WX    TMP DP  RH WIND       PRES   REMARKS
WASHINGTON NAT MOCLDY    69  61  75 NE14      30.13R
DULLES         MOCLDY    67  62  84 N7        30.13R
ANDREWS AFB    FAIR      67  62  83 NE3       30.12R
FT BELVOIR     FAIR      69  62  77 CALM      30.12R
QUANTICO       FAIR      70  66  87 NE8       30.12R
COLLEGE PARK*  FAIR      66  61  85 CALM      30.12R
LEESBURG*      MOCLDY    64  63  94 N9        30.15R
MANASSAS*      FAIR      67  63  87 N5        30.13R
GAITHERSBURG*  FAIR      63  60  90 CALM      30.15R

$$

MDZ006>007-011-014-211000-
BALTIMORE METRO

CITY           SKY/WX    TMP DP  RH WIND       PRES   REMARKS
BWI AIRPORT    MOCLDY    66  62  87 E7        30.12R
MD SCIENCE CTR   N/A     69  62  78 MISG      30.12R
MARTIN STATE   FAIR      64  64 100 CALM      30.14R
ANNAPOLIS      FAIR      71  62  73 NE6       30.12R
FORT MEADE*    FAIR      63  59  88 E5        30.15R

$$

MDZ012-015-019>023-211000-
MARYLAND EASTERN SHORE

CITY           SKY/WX    TMP DP  RH WIND       PRES   REMARKS
OCEAN CITY     FAIR      66  62  87 NE13      30.11R
SALISBURY      FAIR      68  66  93 NE9       30.10R
BAY BRIDGE AP* FAIR      66  61  82 E5        30.12R
CAMBRIDGE*       N/A     68  63  83 NE9       30.10S
EASTON*        FAIR      67  61  81 E5        30.16R

$$

MDZ017>025-211000-
SOUTHERN MARYLAND

CITY           SKY/WX    TMP DP  RH WIND       PRES   REMARKS
PATUXENT RIVER FAIR      73  66  78 NE8       30.09R
ST INIGOES     NOT AVBL
LEONARDTOWN*   FAIR      68  64  88 NE3       30.12R

$$

MDZ003>005-211000-
NORTH CENTRAL MARYLAND

CITY           SKY/WX    TMP DP  RH WIND       PRES   REMARKS
FREDERICK*     FAIR      63  63 100 N3        30.18R
HAGERSTOWN APT MOCLDY    64  57  78 CALM      30.16R
WESTMINSTER*   FAIR      63  61  94 NE3       30.16R

$$

MDZ501>502-211000-
WESTERN MARYLAND

CITY           SKY/WX    TMP DP  RH WIND       PRES   REMARKS
OAKLAND*       FAIR      57  57 100 CALM      30.21R
CUMBERLAND*    MOCLDY    61  61 100 CALM      30.20R VSB 1

$$

VAZ025>031-211000-
SHENANDOAH VALLEY

CITY           SKY/WX    TMP DP  RH WIND       PRES   REMARKS
WINCHESTER*    FAIR      59  57  94 NW3       30.17R
FRONT ROYAL*   FAIR      61  61 100 CALM      30.14R
LURAY*         FAIR      61  61 100 CALM      30.15R
NEW MARKET*    FAIR      60  59  96 CALM      30.14R
STAUNTON*      MOCLDY    60  60  99 CALM      30.17R FOG
WAYNESBORO*    FAIR      61  61  99 CALM      30.15S

$$

WVZ021-048>050-054>055-211000-
EASTERN WEST VIRGINIA PANHANDLE

CITY           SKY/WX    TMP DP  RH WIND       PRES   REMARKS
MARTINSBURG    CLOUDY    62  60  93 CALM      30.14R
PETERSBURG*    FOG       58  58  99 CALM      30.16R VSB 3/4

$$

VAZ036>039-050-211000-
CENTRAL FOOTHILLS

CITY           SKY/WX    TMP DP  RH WIND       PRES   REMARKS
CHARLOTTESVILL FAIR      68  64  87 CALM      30.12R
CULPEPER*      MOCLDY    65  63  93 CALM      30.13R
ORANGE*        FAIR      66  63  88 CALM      30.12R
GORDONSVILLE*  FAIR      67  65  91 NE3       30.11R
WARRENTON*     MOCLDY    67  60  77 NE5       30.12R

$$

VAZ055>057-211000-
NORTH AND CENTRAL PIEDMONT

CITY           SKY/WX    TMP DP  RH WIND       PRES   REMARKS
FREDERICKSBRG* MOCLDY    69  69 100 CALM      30.09R
STAFFORD*      FAIR      70  67  88 N6        30.14R

$$

NCZ024-NYZ072-PAZ021-071-VAZ022-071-211000-
OTHER REGIONAL OBSERVATIONS

CITY           SKY/WX    TMP DP  RH WIND       PRES   REMARKS
NEW YORK CITY  FAIR      61  53  75 NW5       30.15R
PHILADELPHIA   CLOUDY    63  55  75 N7        30.14R
PITTSBURGH     MOCLDY    59  55  87 N5        30.17R
ROANOKE        FAIR      67  62  84 N3        30.15R
RICHMOND       FAIR      70  66  87 CALM      30.08R
RALEIGH        MOCLDY    69  69 100 SW5       30.10R

$$

ANZ530>537-211000-
MARINE OBSERVATIONS

STATION/POSITION TIME  TEMP    WIND        PRES
                       AIR SEA DIR/SP/G
                 (UTC) (F)     (DEG/KT/KT) (MB)
THOMAS PT LIGHT  0900   68 66   40/  9/  9 1020.9R
BALT KEY BRIDGE  0836   68      40/  6/  8 1020.0R
COVE POINT       0836   71      90/ 14/ 17 1019.5R
LEWISETTA        0836   73 72   20/  5/  7 1018.4R
SOLOMONS ISLAND  0836   71 69   50/ 11/ 13 1018.6R
PINEY POINT      0842           60/  9/ 12   N/A

$$





USA.gov is the U.S. government's official web portal to all federal, state and local government web resources and services.